DLH323C LICJ-EDDF

Flight info

Callsign DLH323C
Flight time 2h 3m
Altitude 38000
Route ROSAS DCT LAT DCT GIKEB DCT EKPEB DCT BRENO DCT KONIN DCT ERNAS T161 DEBHI DEBHI1B
Aircraft A320/M-SDE2E3FGIJ1LORWXYZ/HB1

Departure

Time 2026-04-14 09:07
Airport Falcone–Borsellino Airport (LICJ)

Arrival

Time 2026-04-14 11:10
Airport Frankfurt Main Airport (EDDF)
Time Latitude Longitude Altitude Speed Heading
2026-04-14 08:36 38.18571 13.10664 53 ft 0 kts 337°
2026-04-14 08:36 38.18578 13.10717 52 ft 0 kts 324°
2026-04-14 09:00 38.18558 13.10733 53 ft 4 kts 335°
2026-04-14 09:00 38.18533 13.10743 53 ft 4 kts
2026-04-14 09:00 38.18512 13.10734 53 ft 3 kts 60°
2026-04-14 09:01 38.18510 13.10729 50 ft 1 kts 66°
2026-04-14 09:02 38.18510 13.10734 51 ft 2 kts 78°
2026-04-14 09:03 38.18495 13.10796 53 ft 9 kts 112°
2026-04-14 09:03 38.18473 13.10869 50 ft 9 kts 105°
2026-04-14 09:03 38.18446 13.10935 50 ft 8 kts 142°
2026-04-14 09:03 38.18428 13.11004 53 ft 10 kts 69°
2026-04-14 09:04 38.18470 13.11128 53 ft 20 kts 66°
2026-04-14 09:04 38.18542 13.11331 52 ft 29 kts 67°
2026-04-14 09:04 38.18612 13.11550 53 ft 25 kts 73°
2026-04-14 09:04 38.18602 13.11754 53 ft 21 kts 98°
2026-04-14 09:05 38.18568 13.11886 53 ft 13 kts 136°
2026-04-14 09:05 38.18508 13.11860 53 ft 10 kts 250°
2026-04-14 09:05 38.18502 13.11840 52 ft 0 kts 248°
2026-04-14 09:06 38.18501 13.11838 53 ft 3 kts 248°
2026-04-14 09:06 38.18408 13.11553 53 ft 73 kts 247°
2026-04-14 09:06 38.18124 13.10709 51 ft 132 kts 247°
2026-04-14 09:06 38.17698 13.09454 164 ft 169 kts 247°
2026-04-14 09:07 38.17213 13.08036 678 ft 181 kts 247°
2026-04-14 09:07 38.16706 13.06543 1310 ft 193 kts 248°
2026-04-14 09:07 38.16152 13.04885 1742 ft 216 kts 248°
2026-04-14 09:07 38.15598 13.03003 2200 ft 240 kts 257°
2026-04-14 09:08 38.15500 13.00804 2763 ft 259 kts 279°
2026-04-14 09:08 38.16168 12.98668 3639 ft 265 kts 306°
2026-04-14 09:08 38.17568 12.97140 4552 ft 271 kts 335°
2026-04-14 09:08 38.19420 12.96679 5410 ft 277 kts
2026-04-14 09:09 38.21238 12.97470 6254 ft 281 kts 33°
2026-04-14 09:09 38.22858 12.98880 7127 ft 284 kts 36°
2026-04-14 09:09 38.24491 13.00330 7980 ft 289 kts 36°
2026-04-14 09:09 38.26154 13.01804 8776 ft 294 kts 36°
2026-04-14 09:10 38.27824 13.03281 9566 ft 298 kts 36°
2026-04-14 09:10 38.29547 13.04800 10256 ft 308 kts 36°
2026-04-14 09:10 38.31380 13.06413 10532 ft 332 kts 35°
2026-04-14 09:10 38.33328 13.08122 10987 ft 347 kts 35°
2026-04-14 09:11 38.35334 13.09884 11660 ft 354 kts 35°
2026-04-14 09:11 38.37378 13.11678 12345 ft 360 kts 35°
2026-04-14 09:11 38.39456 13.13503 13020 ft 365 kts 35°
2026-04-14 09:11 38.41567 13.15360 13712 ft 369 kts 35°
2026-04-14 09:12 38.43687 13.17225 14390 ft 373 kts 35°
2026-04-14 09:12 38.45838 13.19122 15049 ft 377 kts 35°
2026-04-14 09:12 38.48006 13.21033 15687 ft 381 kts 36°
2026-04-14 09:12 38.50197 13.22963 16297 ft 385 kts 36°
2026-04-14 09:13 38.52406 13.24914 16907 ft 389 kts 36°
2026-04-14 09:13 38.54637 13.26891 17488 ft 392 kts 36°
2026-04-14 09:13 38.56893 13.28886 18093 ft 396 kts 36°
2026-04-14 09:13 38.59165 13.30899 18645 ft 399 kts 36°
2026-04-14 09:14 38.61454 13.32926 19207 ft 403 kts 36°
2026-04-14 09:14 38.63765 13.34969 19741 ft 406 kts 36°
2026-04-14 09:14 38.66097 13.37036 20270 ft 409 kts 36°
2026-04-14 09:14 38.68444 13.39125 20786 ft 413 kts 36°
2026-04-14 09:15 38.70810 13.41236 21320 ft 416 kts 36°
2026-04-14 09:15 38.73190 13.43363 21815 ft 419 kts 36°
2026-04-14 09:15 38.75588 13.45501 22302 ft 421 kts 36°
2026-04-14 09:15 38.78002 13.47648 22783 ft 424 kts 36°
2026-04-14 09:16 38.80456 13.49766 23239 ft 427 kts 31°
2026-04-14 09:16 38.83144 13.51423 23676 ft 431 kts 20°
2026-04-14 09:16 38.86046 13.52443 24089 ft 434 kts
2026-04-14 09:16 38.89058 13.52768 24516 ft 435 kts 358°
2026-04-14 09:17 38.92072 13.52394 24919 ft 436 kts 348°
2026-04-14 09:17 38.95069 13.51721 25307 ft 439 kts 348°
2026-04-14 09:17 38.98046 13.51054 25677 ft 441 kts 348°
2026-04-14 09:17 39.01077 13.50379 26045 ft 444 kts 348°
2026-04-14 09:18 39.04132 13.49704 26425 ft 447 kts 348°
2026-04-14 09:18 39.07203 13.49023 26791 ft 449 kts 348°
2026-04-14 09:18 39.10294 13.48334 27140 ft 452 kts 348°
2026-04-14 09:18 39.13399 13.47634 27482 ft 454 kts 347°
2026-04-14 09:19 39.16521 13.46925 27822 ft 457 kts 347°
2026-04-14 09:19 39.19661 13.46213 28175 ft 459 kts 347°
2026-04-14 09:19 39.22814 13.45506 28512 ft 461 kts 347°
2026-04-14 09:19 39.25985 13.44799 28827 ft 464 kts 347°
2026-04-14 09:20 39.29171 13.44086 29142 ft 466 kts 347°
2026-04-14 09:20 39.32372 13.43370 29451 ft 468 kts 347°
2026-04-14 09:20 39.35590 13.42651 29757 ft 470 kts 347°
2026-04-14 09:20 39.38823 13.41926 30048 ft 473 kts 347°
2026-04-14 09:21 39.42064 13.41196 30328 ft 475 kts 347°
2026-04-14 09:21 39.45324 13.40462 30611 ft 476 kts 347°
2026-04-14 09:21 39.48586 13.39725 30885 ft 477 kts 347°
2026-04-14 09:21 39.51869 13.38979 31173 ft 479 kts 347°
2026-04-14 09:22 39.55154 13.38232 31461 ft 479 kts 347°
2026-04-14 09:22 39.58433 13.37489 31857 ft 477 kts 347°
2026-04-14 09:22 39.61697 13.36749 32244 ft 476 kts 347°
2026-04-14 09:22 39.64950 13.36015 32636 ft 474 kts 347°
2026-04-14 09:23 39.68190 13.35282 33006 ft 472 kts 347°
2026-04-14 09:23 39.71421 13.34549 33371 ft 471 kts 348°
2026-04-14 09:23 39.74645 13.33814 33746 ft 469 kts 348°
2026-04-14 09:23 39.77854 13.33080 34117 ft 467 kts 348°
2026-04-14 09:24 39.81052 13.32351 34475 ft 466 kts 348°
2026-04-14 09:24 39.84241 13.31625 34792 ft 465 kts 348°
2026-04-14 09:24 39.87424 13.30894 35073 ft 464 kts 348°
2026-04-14 09:24 39.90557 13.30174 35365 ft 463 kts 348°
2026-04-14 09:25 39.93731 13.29447 35641 ft 463 kts 347°
2026-04-14 09:25 39.96899 13.28721 35845 ft 463 kts 347°
2026-04-14 09:25 40.03211 13.27276 35924 ft 457 kts 348°
2026-04-14 09:26 40.09451 13.25842 35926 ft 454 kts 348°
2026-04-14 09:26 40.15674 13.24412 35924 ft 454 kts 348°
2026-04-14 09:27 40.21899 13.22975 35924 ft 454 kts 348°
2026-04-14 09:27 40.28123 13.21532 35928 ft 454 kts 348°
2026-04-14 09:28 40.34341 13.20095 35925 ft 454 kts 348°
2026-04-14 09:28 40.40560 13.18655 35925 ft 454 kts 348°
2026-04-14 09:29 40.46781 13.17206 35925 ft 454 kts 348°
2026-04-14 09:29 40.52994 13.15753 35923 ft 454 kts 348°
2026-04-14 09:30 40.59207 13.14304 35916 ft 454 kts 348°
2026-04-14 09:30 40.65428 13.12853 35915 ft 454 kts 348°
2026-04-14 09:31 40.71645 13.11397 35910 ft 454 kts 348°
2026-04-14 09:31 40.77862 13.09934 35905 ft 454 kts 348°
2026-04-14 09:32 40.84085 13.08468 35905 ft 454 kts 348°
2026-04-14 09:33 40.93422 13.06266 35905 ft 454 kts 348°
2026-04-14 09:33 40.99653 13.04796 35910 ft 455 kts 348°
2026-04-14 09:34 41.05883 13.03322 35918 ft 455 kts 348°
2026-04-14 09:34 41.12112 13.01837 35925 ft 455 kts 348°
2026-04-14 09:35 41.18343 13.00356 35925 ft 455 kts 348°
2026-04-14 09:35 41.24576 12.98873 35927 ft 455 kts 348°
2026-04-14 09:36 41.30806 12.97397 35928 ft 455 kts 348°
2026-04-14 09:36 41.37034 12.95907 35927 ft 454 kts 348°
2026-04-14 09:37 41.43257 12.94413 35924 ft 455 kts 348°
2026-04-14 09:37 41.49478 12.92916 35924 ft 454 kts 348°
2026-04-14 09:38 41.55657 12.91423 35928 ft 454 kts 348°
2026-04-14 09:38 41.61860 12.89840 35925 ft 454 kts 347°
2026-04-14 09:39 41.68052 12.88202 35921 ft 454 kts 347°
2026-04-14 09:39 41.74244 12.86566 35916 ft 453 kts 347°
2026-04-14 09:40 41.80436 12.84960 35911 ft 453 kts 347°
2026-04-14 09:40 41.86626 12.83355 35908 ft 453 kts 347°
2026-04-14 09:41 41.92814 12.81744 35904 ft 453 kts 347°
2026-04-14 09:41 41.98998 12.80123 35899 ft 453 kts 347°
2026-04-14 09:42 42.05178 12.78508 35899 ft 453 kts 347°
2026-04-14 09:42 42.11366 12.76882 35899 ft 453 kts 347°
2026-04-14 09:43 42.17545 12.75250 35900 ft 453 kts 347°
2026-04-14 09:43 42.23736 12.73611 35905 ft 453 kts 347°
2026-04-14 09:44 42.29924 12.71978 35912 ft 453 kts 347°
2026-04-14 09:44 42.35074 12.70620 35917 ft 453 kts 347°
2026-04-14 09:45 42.41265 12.68977 35922 ft 454 kts 347°
2026-04-14 09:45 42.47454 12.67323 35925 ft 453 kts 347°
2026-04-14 09:46 42.53641 12.65674 35923 ft 453 kts 347°
2026-04-14 09:46 42.59824 12.64029 35929 ft 453 kts 347°
2026-04-14 09:47 42.66001 12.62382 35925 ft 452 kts 347°
2026-04-14 09:47 42.72170 12.60726 35925 ft 452 kts 347°
2026-04-14 09:48 42.78290 12.59070 35922 ft 451 kts 347°
2026-04-14 09:48 42.84450 12.57418 35917 ft 451 kts 347°
2026-04-14 09:49 42.90609 12.55758 35921 ft 451 kts 347°
2026-04-14 09:49 42.96769 12.54087 35919 ft 451 kts 347°
2026-04-14 09:50 43.02926 12.52426 35917 ft 451 kts 347°
2026-04-14 09:50 43.09077 12.50760 35914 ft 451 kts 347°
2026-04-14 09:51 43.15229 12.49085 35915 ft 451 kts 347°
2026-04-14 09:51 43.21381 12.47401 35918 ft 451 kts 347°
2026-04-14 09:52 43.27533 12.45716 35919 ft 451 kts 347°
2026-04-14 09:52 43.33679 12.44038 35920 ft 450 kts 347°
2026-04-14 09:53 43.39823 12.42352 35915 ft 450 kts 347°
2026-04-14 09:53 43.45970 12.40665 35916 ft 451 kts 347°
2026-04-14 09:54 43.52124 12.38973 35918 ft 451 kts 347°
2026-04-14 09:54 43.58278 12.37259 35919 ft 451 kts 347°
2026-04-14 09:55 43.64437 12.35554 35921 ft 451 kts 347°
2026-04-14 09:55 43.70590 12.33855 35928 ft 451 kts 347°
2026-04-14 09:56 43.76740 12.32152 36269 ft 451 kts 347°
2026-04-14 09:56 43.79810 12.31297 36518 ft 451 kts 347°
2026-04-14 09:56 43.82884 12.30445 36766 ft 450 kts 347°
2026-04-14 09:56 43.85959 12.29591 36899 ft 450 kts 347°
2026-04-14 09:57 43.89022 12.28734 36936 ft 448 kts 347°
2026-04-14 09:57 43.95073 12.27042 36934 ft 446 kts 347°
2026-04-14 09:58 44.01155 12.25344 36934 ft 446 kts 347°
2026-04-14 09:58 44.07234 12.23641 36934 ft 446 kts 347°
2026-04-14 09:59 44.13313 12.21926 36934 ft 446 kts 347°
2026-04-14 09:59 44.19388 12.20221 36935 ft 446 kts 347°
2026-04-14 10:00 44.25472 12.18512 36936 ft 446 kts 347°
2026-04-14 10:00 44.31557 12.16785 36939 ft 446 kts 347°
2026-04-14 10:01 44.37640 12.15056 36941 ft 446 kts 347°
2026-04-14 10:01 44.43719 12.13324 36942 ft 446 kts 347°
2026-04-14 10:02 44.49795 12.11586 36942 ft 445 kts 347°
2026-04-14 10:02 44.55865 12.09854 36940 ft 445 kts 347°
2026-04-14 10:03 44.61935 12.08126 36938 ft 445 kts 347°
2026-04-14 10:03 44.67998 12.06387 36938 ft 445 kts 347°
2026-04-14 10:04 44.74070 12.04640 36946 ft 445 kts 347°
2026-04-14 10:04 44.80138 12.02893 36951 ft 445 kts 347°
2026-04-14 10:05 44.86203 12.01145 36952 ft 445 kts 347°
2026-04-14 10:05 44.92229 11.99402 36956 ft 445 kts 347°
2026-04-14 10:06 44.98291 11.97645 36967 ft 444 kts 347°
2026-04-14 10:06 45.04346 11.95883 36969 ft 444 kts 347°
2026-04-14 10:07 45.10400 11.94126 36970 ft 444 kts 347°
2026-04-14 10:07 45.16453 11.92362 36973 ft 444 kts 347°
2026-04-14 10:08 45.22495 11.90603 36976 ft 444 kts 348°
2026-04-14 10:08 45.28538 11.88827 36976 ft 443 kts 348°
2026-04-14 10:09 45.34579 11.87052 36977 ft 443 kts 348°
2026-04-14 10:09 45.40618 11.85279 36978 ft 443 kts 348°
2026-04-14 10:10 45.46655 11.83505 36972 ft 443 kts 348°
2026-04-14 10:10 45.52694 11.81728 36972 ft 443 kts 348°
2026-04-14 10:11 45.58733 11.79940 36976 ft 443 kts 348°
2026-04-14 10:11 45.64763 11.78142 36978 ft 443 kts 348°
2026-04-14 10:12 45.70800 11.76349 36980 ft 443 kts 348°
2026-04-14 10:12 45.76835 11.74546 36982 ft 443 kts 348°
2026-04-14 10:13 45.82874 11.72741 36986 ft 443 kts 348°
2026-04-14 10:13 45.88917 11.70928 36992 ft 443 kts 348°
2026-04-14 10:14 45.94957 11.69112 36996 ft 443 kts 348°
2026-04-14 10:14 46.00954 11.67310 37000 ft 443 kts 348°
2026-04-14 10:15 46.06994 11.65491 37005 ft 443 kts 348°
2026-04-14 10:15 46.13034 11.63677 37010 ft 443 kts 348°
2026-04-14 10:16 46.19062 11.61845 37013 ft 443 kts 348°
2026-04-14 10:16 46.25104 11.60064 37015 ft 443 kts 348°
2026-04-14 10:17 46.31150 11.58319 37019 ft 443 kts 348°
2026-04-14 10:17 46.37202 11.56567 37024 ft 444 kts 348°
2026-04-14 10:18 46.46273 11.53914 37028 ft 443 kts 348°
2026-04-14 10:18 46.52312 11.52132 37025 ft 443 kts 348°
2026-04-14 10:19 46.58340 11.50352 37024 ft 442 kts 348°
2026-04-14 10:19 46.64374 11.48561 37023 ft 442 kts 348°
2026-04-14 10:20 46.70406 11.46775 37025 ft 442 kts 348°
2026-04-14 10:20 46.76418 11.44858 37026 ft 442 kts 346°
2026-04-14 10:21 46.82414 11.42839 37031 ft 442 kts 346°
2026-04-14 10:21 46.88410 11.40824 37044 ft 442 kts 346°
2026-04-14 10:22 46.94410 11.38836 37053 ft 442 kts 347°
2026-04-14 10:22 47.00443 11.37626 37057 ft 442 kts 360°
2026-04-14 10:23 47.06596 11.37594 37073 ft 442 kts 359°
2026-04-14 10:23 47.12750 11.37535 37083 ft 442 kts 359°
2026-04-14 10:24 47.18908 11.37475 37096 ft 443 kts 359°
2026-04-14 10:24 47.25069 11.37418 37108 ft 443 kts 359°
2026-04-14 10:25 47.31230 11.37351 37110 ft 443 kts 359°
2026-04-14 10:25 47.37389 11.37274 37110 ft 442 kts 359°
2026-04-14 10:26 47.43540 11.37206 37106 ft 442 kts 359°
2026-04-14 10:26 47.49697 11.37154 37104 ft 442 kts 359°
2026-04-14 10:27 47.55857 11.37100 37110 ft 443 kts 359°
2026-04-14 10:27 47.62021 11.37032 37113 ft 443 kts 359°
2026-04-14 10:28 47.68149 11.36969 37109 ft 443 kts 359°
2026-04-14 10:28 47.74323 11.36911 37111 ft 444 kts 359°
2026-04-14 10:29 47.80503 11.36851 37117 ft 444 kts 359°
2026-04-14 10:29 47.86670 11.36648 37123 ft 443 kts 353°
2026-04-14 10:30 47.92822 11.35748 37132 ft 443 kts 353°
2026-04-14 10:30 47.98959 11.34834 37137 ft 443 kts 353°
2026-04-14 10:31 48.05090 11.33918 37139 ft 443 kts 353°
2026-04-14 10:31 48.11229 11.33000 37142 ft 443 kts 353°
2026-04-14 10:32 48.17366 11.32085 37145 ft 443 kts 353°
2026-04-14 10:32 48.23496 11.31165 37146 ft 443 kts 353°
2026-04-14 10:33 48.29623 11.30261 37145 ft 442 kts 353°
2026-04-14 10:33 48.34716 11.29499 37143 ft 442 kts 353°
2026-04-14 10:34 48.43894 11.28114 37144 ft 442 kts 353°
2026-04-14 10:35 48.50014 11.27194 37151 ft 442 kts 353°
2026-04-14 10:35 48.56064 11.26278 37118 ft 435 kts 353°
2026-04-14 10:36 48.62107 11.25354 37119 ft 437 kts 353°
2026-04-14 10:36 48.68168 11.24437 37114 ft 438 kts 353°
2026-04-14 10:37 48.74241 11.23510 37116 ft 439 kts 353°
2026-04-14 10:37 48.80303 11.22440 37117 ft 438 kts 346°
2026-04-14 10:38 48.85939 11.19119 37117 ft 435 kts 327°
2026-04-14 10:38 48.90632 11.13429 36551 ft 432 kts 316°
2026-04-14 10:38 48.92817 11.10384 35934 ft 432 kts 315°
2026-04-14 10:39 48.95052 11.07251 35374 ft 430 kts 315°
2026-04-14 10:39 48.97218 11.04208 34848 ft 428 kts 315°
2026-04-14 10:39 48.99399 11.01142 34379 ft 425 kts 315°
2026-04-14 10:39 49.01565 10.98098 33923 ft 421 kts 315°
2026-04-14 10:40 49.03705 10.95089 33475 ft 417 kts 315°
2026-04-14 10:40 49.05827 10.92105 33016 ft 413 kts 315°
2026-04-14 10:40 49.07930 10.89146 32551 ft 410 kts 315°
2026-04-14 10:40 49.10019 10.86202 32086 ft 407 kts 315°
2026-04-14 10:41 49.12087 10.83278 31623 ft 404 kts 314°
2026-04-14 10:41 49.14139 10.80369 31167 ft 401 kts 315°
2026-04-14 10:41 49.16172 10.77481 30694 ft 398 kts 314°
2026-04-14 10:41 49.18190 10.74611 30218 ft 395 kts 314°
2026-04-14 10:42 49.20191 10.71755 29760 ft 392 kts 314°
2026-04-14 10:42 49.22132 10.68842 29285 ft 389 kts 312°
2026-04-14 10:42 49.24013 10.65889 28821 ft 386 kts 311°
2026-04-14 10:42 49.25858 10.62928 28361 ft 383 kts 311°
2026-04-14 10:43 49.27687 10.59973 27894 ft 381 kts 311°
2026-04-14 10:43 49.29507 10.57047 27431 ft 378 kts 311°
2026-04-14 10:43 49.31322 10.54146 26974 ft 376 kts 311°
2026-04-14 10:43 49.33128 10.51273 26524 ft 373 kts 312°
2026-04-14 10:44 49.34927 10.48422 26071 ft 371 kts 312°
2026-04-14 10:44 49.36608 10.45455 25616 ft 366 kts 303°
2026-04-14 10:44 49.38067 10.42272 25161 ft 364 kts 303°
2026-04-14 10:44 49.39515 10.39099 24701 ft 361 kts 303°
2026-04-14 10:45 49.40951 10.35949 24269 ft 359 kts 303°
2026-04-14 10:45 49.42382 10.32815 24141 ft 358 kts 303°
2026-04-14 10:45 49.43815 10.29676 24163 ft 360 kts 303°
2026-04-14 10:45 49.45249 10.26533 24165 ft 360 kts 303°
2026-04-14 10:46 49.46685 10.23377 24164 ft 360 kts 303°
2026-04-14 10:46 49.48116 10.20223 24012 ft 358 kts 303°
2026-04-14 10:46 49.49535 10.17088 23557 ft 356 kts 303°
2026-04-14 10:46 49.50925 10.14010 23126 ft 354 kts 303°
2026-04-14 10:47 49.52326 10.10909 22707 ft 352 kts 304°
2026-04-14 10:47 49.53719 10.07832 22295 ft 349 kts 304°
2026-04-14 10:47 49.55102 10.04772 21897 ft 347 kts 304°
2026-04-14 10:47 49.56472 10.01731 21487 ft 344 kts 304°
2026-04-14 10:48 49.57833 9.98707 21082 ft 342 kts 304°
2026-04-14 10:48 49.59187 9.95704 20679 ft 340 kts 304°
2026-04-14 10:48 49.60532 9.92719 20287 ft 338 kts 304°
2026-04-14 10:48 49.61868 9.89752 19903 ft 336 kts 304°
2026-04-14 10:49 49.63195 9.86801 19519 ft 334 kts 304°
2026-04-14 10:49 49.64513 9.83866 19134 ft 332 kts 304°
2026-04-14 10:49 49.65817 9.80952 18756 ft 330 kts 304°
2026-04-14 10:49 49.67112 9.78047 18383 ft 327 kts 304°
2026-04-14 10:50 49.68398 9.75160 18007 ft 325 kts 304°
2026-04-14 10:50 49.69676 9.72287 17646 ft 324 kts 303°
2026-04-14 10:50 49.70945 9.69429 17290 ft 322 kts 304°
2026-04-14 10:50 49.72209 9.66589 16935 ft 320 kts 304°
2026-04-14 10:51 49.73464 9.63764 16591 ft 318 kts 304°
2026-04-14 10:51 49.74713 9.60953 16258 ft 316 kts 303°
2026-04-14 10:51 49.75952 9.58152 15916 ft 315 kts 303°
2026-04-14 10:51 49.77187 9.55369 15599 ft 313 kts 303°
2026-04-14 10:52 49.78412 9.52601 15268 ft 311 kts 303°
2026-04-14 10:52 49.79628 9.49838 14939 ft 309 kts 303°
2026-04-14 10:52 49.80833 9.47099 14606 ft 308 kts 303°
2026-04-14 10:52 49.82038 9.44361 14279 ft 306 kts 303°
2026-04-14 10:53 49.83231 9.41649 13955 ft 305 kts 303°
2026-04-14 10:53 49.84423 9.38945 13626 ft 303 kts 303°
2026-04-14 10:53 49.85600 9.36247 13300 ft 301 kts 301°
2026-04-14 10:53 49.86513 9.33349 12966 ft 298 kts 288°
2026-04-14 10:54 49.87110 9.30280 12627 ft 297 kts 285°
2026-04-14 10:54 49.87693 9.27218 12286 ft 295 kts 285°
2026-04-14 10:54 49.88274 9.24172 11951 ft 294 kts 285°
2026-04-14 10:54 49.88845 9.21180 11610 ft 292 kts 285°
2026-04-14 10:55 49.89420 9.18164 11275 ft 291 kts 286°
2026-04-14 10:55 49.89990 9.15160 11178 ft 290 kts 285°
2026-04-14 10:55 49.90562 9.12151 11191 ft 292 kts 286°
2026-04-14 10:55 49.91134 9.09130 11195 ft 292 kts 285°
2026-04-14 10:56 49.91709 9.06107 11188 ft 292 kts 286°
2026-04-14 10:56 49.92285 9.03091 11121 ft 290 kts 286°
2026-04-14 10:56 49.92860 9.00100 10749 ft 289 kts 286°
2026-04-14 10:56 49.93432 8.97119 10383 ft 288 kts 286°
2026-04-14 10:57 49.93997 8.94151 10030 ft 286 kts 286°
2026-04-14 10:57 49.94555 8.91209 9678 ft 284 kts 286°
2026-04-14 10:57 49.95110 8.88278 9312 ft 282 kts 287°
2026-04-14 10:57 49.95661 8.85361 8936 ft 281 kts 287°
2026-04-14 10:58 49.96210 8.82458 8547 ft 280 kts 287°
2026-04-14 10:58 49.96758 8.79570 8168 ft 278 kts 287°
2026-04-14 10:58 49.97301 8.76699 7799 ft 276 kts 287°
2026-04-14 10:58 49.97767 8.73821 7411 ft 274 kts 278°
2026-04-14 10:59 49.97801 8.70867 7038 ft 274 kts 264°
2026-04-14 10:59 49.97359 8.68003 6650 ft 273 kts 250°
2026-04-14 10:59 49.96687 8.65255 6248 ft 272 kts 250°
2026-04-14 10:59 49.96026 8.62512 5853 ft 270 kts 251°
2026-04-14 11:00 49.95373 8.59782 5468 ft 269 kts 251°
2026-04-14 11:00 49.94721 8.57068 5199 ft 266 kts 251°
2026-04-14 11:00 49.94070 8.54368 5189 ft 268 kts 251°
2026-04-14 11:00 49.93419 8.51661 5188 ft 268 kts 251°
2026-04-14 11:01 49.92769 8.48948 5195 ft 269 kts 251°
2026-04-14 11:01 49.92118 8.46236 5191 ft 268 kts 251°
2026-04-14 11:01 49.91475 8.43557 5191 ft 269 kts 251°
2026-04-14 11:01 49.90821 8.40835 5194 ft 269 kts 251°
2026-04-14 11:02 49.90162 8.38119 5189 ft 269 kts 251°
2026-04-14 11:02 49.89504 8.35429 4877 ft 265 kts 251°
2026-04-14 11:02 49.88854 8.32756 4468 ft 265 kts 251°
2026-04-14 11:02 49.88218 8.30083 4105 ft 262 kts 255°
2026-04-14 11:03 49.88034 8.27363 4001 ft 247 kts 278°
2026-04-14 11:03 49.88494 8.24940 4006 ft 225 kts 300°
2026-04-14 11:03 49.89412 8.23095 4001 ft 212 kts 318°
2026-04-14 11:03 49.90473 8.21513 3999 ft 212 kts 319°
2026-04-14 11:04 49.91673 8.20227 4006 ft 210 kts 337°
2026-04-14 11:04 49.93076 8.19631 4007 ft 210 kts 355°
2026-04-14 11:04 49.94526 8.19792 4005 ft 210 kts 13°
2026-04-14 11:04 49.95867 8.20708 4016 ft 212 kts 33°
2026-04-14 11:05 49.96938 8.22295 3908 ft 215 kts 52°
2026-04-14 11:05 49.97579 8.24319 3690 ft 204 kts 67°
2026-04-14 11:05 49.98066 8.26339 3439 ft 198 kts 66°
2026-04-14 11:05 49.98540 8.28291 3174 ft 189 kts 66°
2026-04-14 11:06 49.98999 8.30183 2923 ft 185 kts 65°
2026-04-14 11:06 49.99451 8.32047 2681 ft 185 kts 66°
2026-04-14 11:06 49.99890 8.33869 2448 ft 173 kts 66°
2026-04-14 11:06 50.00304 8.35583 2216 ft 167 kts 66°
2026-04-14 11:07 50.00709 8.37258 1995 ft 165 kts 66°
2026-04-14 11:07 50.01103 8.38893 1793 ft 155 kts 67°
2026-04-14 11:07 50.01469 8.40410 1579 ft 145 kts 67°
2026-04-14 11:07 50.01816 8.41851 1392 ft 140 kts 67°
2026-04-14 11:08 50.02156 8.43261 1207 ft 139 kts 67°
2026-04-14 11:08 50.02493 8.44662 1028 ft 138 kts 67°
2026-04-14 11:08 50.02829 8.46058 846 ft 138 kts 67°
2026-04-14 11:08 50.03161 8.47437 664 ft 135 kts 68°
2026-04-14 11:09 50.03487 8.48793 471 ft 134 kts 68°
2026-04-14 11:09 50.03810 8.50142 323 ft 130 kts 69°
2026-04-14 11:09 50.04084 8.51286 331 ft 97 kts 69°
2026-04-14 11:10 50.04398 8.52709 352 ft 41 kts 90°
2026-04-14 11:10 50.04361 8.53112 358 ft 36 kts 99°
2026-04-14 11:10 50.04388 8.53460 374 ft 30 kts 76°
2026-04-14 11:10 50.04412 8.53782 375 ft 28 kts 83°
2026-04-14 11:11 50.04434 8.54085 375 ft 29 kts 84°
2026-04-14 11:11 50.04454 8.54392 372 ft 25 kts 87°
2026-04-14 11:11 50.04397 8.54667 363 ft 29 kts 125°
2026-04-14 11:11 50.04249 8.54810 357 ft 26 kts 159°
2026-04-14 11:12 50.04103 8.54890 358 ft 22 kts 156°
2026-04-14 11:12 50.03957 8.54980 352 ft 24 kts 160°
2026-04-14 11:12 50.03851 8.55100 349 ft 18 kts 87°
2026-04-14 11:12 50.03891 8.55294 351 ft 20 kts 68°
2026-04-14 11:13 50.03942 8.55506 349 ft 22 kts 70°
2026-04-14 11:13 50.03996 8.55731 357 ft 22 kts 69°
2026-04-14 11:13 50.04044 8.55932 351 ft 19 kts 70°
2026-04-14 11:13 50.04090 8.56131 352 ft 19 kts 69°
2026-04-14 11:14 50.04155 8.56283 358 ft 15 kts 21°
2026-04-14 11:14 50.04235 8.56244 354 ft 12 kts 341°
2026-04-14 11:14 50.04291 8.56167 357 ft 11 kts 279°
2026-04-14 11:14 50.04315 8.56070 355 ft 9 kts 324°
2026-04-14 11:15 50.04368 8.56041 359 ft 7 kts 340°
2026-04-14 11:15 50.04385 8.56032 358 ft 0 kts 340°
2026-04-14 11:15 50.04404 8.56009 361 ft 8 kts 313°
2026-04-14 11:15 50.04467 8.55931 357 ft 15 kts 351°
2026-04-14 11:16 50.04565 8.56015 358 ft 18 kts 66°
2026-04-14 11:16 50.04609 8.56197 356 ft 18 kts 69°
2026-04-14 11:16 50.04652 8.56383 356 ft 17 kts 78°
2026-04-14 11:16 50.04581 8.56463 359 ft 15 kts 204°
2026-04-14 11:17 50.04506 8.56396 356 ft 10 kts 188°
2026-04-14 11:17 50.04463 8.56423 360 ft 3 kts 153°
2026-04-14 11:17 50.04452 8.56431 358 ft 0 kts 154°